Location: Newark
(35.8833°N, 14.5000°E)
Time: 02:42:51
(UTC+00:00)

Altair - All Passes

Search period start: 20 November 2019 00:00
Search period end: 30 November 2019 00:00
Orbit: 1502 x 1682 km, 47.2° (Epoch: 17 November)

Date Brightness Start Highest point End Pass type
(mag) Time Alt. Az. Time Alt. Az. Time Alt. Az.
20 Nov - 01:33:11 10° WSW 01:42:25 83° NNW 01:51:40 10° NE visible
20 Nov - 03:39:25 10° W 03:48:04 44° N 03:56:50 10° ENE visible
20 Nov - 05:45:43 10° WNW 05:54:32 47° NNE 06:03:34 10° E daylight
20 Nov - 07:50:38 10° WNW 07:59:59 86° SW 08:09:40 10° SE daylight
20 Nov - 09:56:32 10° WNW 10:03:52 26° SW 10:11:24 10° S daylight
20 Nov - 23:05:55 10° S 23:13:24 28° SE 23:20:46 10° ENE night (unlit)
21 Nov - 01:08:00 10° SW 01:17:15 88° NW 01:26:30 10° NE visible
21 Nov - 03:14:06 10° W 03:22:47 45° NNW 03:31:35 10° ENE visible
21 Nov - 05:20:30 10° WNW 05:29:15 45° NNE 05:38:13 10° E daylight
21 Nov - 07:25:28 10° NW 07:34:49 89° NE 07:44:28 10° SE daylight
21 Nov - 09:31:08 10° WNW 09:38:47 29° SW 09:46:40 10° S daylight
21 Nov - 22:41:13 10° S 22:48:20 25° SE 22:55:22 10° ENE night (unlit)
22 Nov - 00:42:51 10° SW 00:52:07 86° SE 01:01:19 10° ENE visible
22 Nov - 02:48:46 10° W 02:57:31 46° NNW 03:06:20 10° ENE visible
22 Nov - 04:55:17 10° WNW 05:03:58 44° NNE 05:12:51 10° E visible
22 Nov - 07:00:19 10° NW 07:09:38 84° NE 07:19:15 10° ESE daylight
22 Nov - 09:05:47 10° WNW 09:13:42 32° SW 09:21:52 10° S daylight
22 Nov - 22:16:34 10° S 22:23:17 23° SE 22:29:55 10° E night (unlit)
23 Nov - 00:17:42 10° SW 00:26:58 81° SE 00:36:09 10° ENE visible
23 Nov - 02:23:28 10° W 02:32:15 48° NNW 02:41:06 10° ENE visible
23 Nov - 04:30:02 10° WNW 04:38:41 43° N 04:47:29 10° E visible
23 Nov - 06:35:10 10° NW 06:44:27 79° NNE 06:54:01 10° ESE daylight
23 Nov - 08:40:28 10° WNW 08:48:37 35° SW 08:57:03 10° SSE daylight
23 Nov - 21:52:01 10° SSE 21:58:16 20° SE 22:04:23 10° E night (unlit)
23 Nov - 23:52:35 10° SW 00:01:50 75° SE 00:10:59 10° ENE visible
24 Nov - 01:58:08 10° W 02:07:00 50° NNW 02:15:53 10° ENE visible
24 Nov - 04:04:48 10° WNW 04:13:24 42° N 04:22:08 10° ENE visible
24 Nov - 06:10:01 10° NW 06:19:15 75° NNE 06:28:46 10° ESE daylight
24 Nov - 08:15:10 10° WNW 08:23:32 38° SW 08:32:10 10° SSE daylight
24 Nov - 21:27:33 10° SSE 21:33:12 18° SE 21:38:47 10° E night (unlit)
24 Nov - 23:27:29 10° SW 23:36:42 70° SE 23:45:48 10° ENE visible
25 Nov - 01:32:49 10° W 01:41:45 52° NNW 01:50:40 10° NE visible
25 Nov - 03:39:32 10° WNW 03:48:07 42° N 03:56:48 10° ENE visible
25 Nov - 05:44:51 10° NW 05:54:03 70° NNE 06:03:31 10° ESE daylight
25 Nov - 07:49:55 10° WNW 07:58:26 42° SW 08:07:15 10° SSE daylight
25 Nov - 21:03:14 10° SSE 21:08:10 16° SE 21:13:02 10° E night (unlit)
25 Nov - 23:02:24 10° SW 23:11:35 65° SE 23:20:37 10° ENE night (unlit)
26 Nov - 01:07:31 10° W 01:16:30 54° NNW 01:25:28 10° NE visible
26 Nov - 03:14:16 10° WNW 03:22:49 41° N 03:31:28 10° ENE visible
26 Nov - 05:19:42 10° NW 05:28:51 67° NNE 05:38:15 10° ESE visible
26 Nov - 07:24:40 10° WNW 07:33:20 46° SW 07:42:18 10° SSE daylight
26 Nov - 20:39:07 10° SSE 20:43:09 13° ESE 20:47:07 10° E night (unlit)
26 Nov - 22:37:21 10° SW 22:46:29 60° SE 22:55:25 10° ENE night (unlit)
27 Nov - 00:42:13 10° W 00:51:17 57° NNW 01:00:17 10° NE visible
27 Nov - 02:48:59 10° WNW 02:57:32 41° N 03:06:08 10° ENE visible
27 Nov - 04:54:32 10° NW 05:03:39 63° NNE 05:12:57 10° ESE visible
27 Nov - 06:59:26 10° WNW 07:08:14 50° SW 07:17:19 10° SSE daylight
27 Nov - 20:15:26 10° SE 20:18:06 11° ESE 20:20:45 10° ESE night (unlit)
27 Nov - 22:12:19 10° SSW 22:21:22 55° SE 22:30:13 10° ENE night (unlit)
28 Nov - 00:16:55 10° WSW 00:26:03 60° NNW 00:35:06 10° NE visible
28 Nov - 02:23:41 10° WNW 02:32:14 41° N 02:40:49 10° ENE visible
28 Nov - 04:29:22 10° NW 04:38:26 60° NNE 04:47:39 10° ESE visible
28 Nov - 06:34:14 10° WNW 06:43:08 55° SW 06:52:18 10° SSE daylight
28 Nov - 08:43:32 10° WSW 08:46:26 12° WSW 08:49:21 10° SW daylight
28 Nov - 21:47:19 10° SSW 21:56:16 50° SE 22:05:01 10° ENE night (unlit)
28 Nov - 23:51:37 10° WSW 00:00:50 63° NNW 00:09:56 10° NE visible
29 Nov - 01:58:24 10° WNW 02:06:56 41° N 02:15:30 10° ENE visible
29 Nov - 04:04:11 10° NW 04:13:13 57° NNE 04:22:21 10° E visible
29 Nov - 06:09:02 10° WNW 06:18:01 60° SW 06:27:16 10° SE daylight
29 Nov - 08:17:16 10° W 08:21:24 14° WSW 08:25:35 10° SSW daylight
29 Nov - 21:22:20 10° SSW 21:31:10 46° SE 21:39:47 10° ENE night (unlit)
29 Nov - 23:26:21 10° WSW 23:35:38 66° NNW 23:44:46 10° NE visible
